TRA6PF EGCC-EHAM

Flight info

Callsign TRA6PF
Flight time 0h 46m
Altitude 33000
Route SONEX L975 DESIG L603 LAMSO
Aircraft A320/M-SDE3FGHIRWY/LB1

Departure

Time 2026-04-26 23:50
Airport Manchester Airport (EGCC)

Arrival

Time 2026-04-27 00:37
Airport Amsterdam Airport Schiphol (EHAM)
Time Latitude Longitude Altitude Speed Heading
2026-04-26 23:06 53.36254 -2.27773 247 ft 0 kts 194°
2026-04-26 23:33 53.36258 -2.27771 247 ft 2 kts 194°
2026-04-26 23:33 53.36274 -2.27764 223 ft 2 kts 198°
2026-04-26 23:33 53.36289 -2.27756 247 ft 2 kts 198°
2026-04-26 23:33 53.36303 -2.27749 246 ft 2 kts 201°
2026-04-26 23:34 53.36313 -2.27742 246 ft 2 kts 206°
2026-04-26 23:34 53.36320 -2.27736 246 ft 2 kts 212°
2026-04-26 23:34 53.36329 -2.27726 246 ft 2 kts 234°
2026-04-26 23:34 53.36334 -2.27702 246 ft 1 kts 284°
2026-04-26 23:35 53.36333 -2.27696 246 ft 0 kts 286°
2026-04-26 23:42 53.36359 -2.27807 247 ft 8 kts 304°
2026-04-26 23:42 53.36390 -2.27915 248 ft 13 kts 265°
2026-04-26 23:43 53.36331 -2.28032 249 ft 9 kts 208°
2026-04-26 23:43 53.36255 -2.28086 250 ft 15 kts 193°
2026-04-26 23:43 53.36162 -2.28014 250 ft 13 kts 134°
2026-04-26 23:43 53.36101 -2.27907 249 ft 13 kts 134°
2026-04-26 23:44 53.36011 -2.27829 249 ft 17 kts 177°
2026-04-26 23:44 53.35927 -2.27847 249 ft 12 kts 187°
2026-04-26 23:44 53.35845 -2.27793 249 ft 15 kts 134°
2026-04-26 23:44 53.35780 -2.27683 248 ft 10 kts 136°
2026-04-26 23:45 53.35706 -2.27634 247 ft 13 kts 158°
2026-04-26 23:45 53.35626 -2.27522 246 ft 17 kts 110°
2026-04-26 23:45 53.35681 -2.27327 242 ft 22 kts 52°
2026-04-26 23:45 53.35790 -2.27105 239 ft 27 kts 50°
2026-04-26 23:46 53.35880 -2.26879 236 ft 22 kts 54°
2026-04-26 23:46 53.35975 -2.26666 232 ft 22 kts 51°
2026-04-26 23:46 53.36078 -2.26450 229 ft 26 kts 52°
2026-04-26 23:46 53.36166 -2.26275 226 ft 17 kts 40°
2026-04-26 23:47 53.36259 -2.26120 224 ft 21 kts 59°
2026-04-26 23:47 53.36269 -2.26026 223 ft 0 kts 94°
2026-04-26 23:48 53.36269 -2.26011 223 ft 4 kts 92°
2026-04-26 23:48 53.36284 -2.25915 222 ft 13 kts 72°
2026-04-26 23:48 53.36253 -2.25762 222 ft 16 kts 149°
2026-04-26 23:48 53.36168 -2.25856 222 ft 17 kts 231°
2026-04-26 23:49 53.36163 -2.25867 222 ft 0 kts 231°
2026-04-26 23:49 53.36148 -2.25897 223 ft 21 kts 231°
2026-04-26 23:50 53.35899 -2.26407 231 ft 89 kts 231°
2026-04-26 23:50 53.35391 -2.27459 247 ft 140 kts 231°
2026-04-26 23:50 53.34724 -2.28815 585 ft 151 kts 229°
2026-04-26 23:50 53.34063 -2.30204 1099 ft 156 kts 233°
2026-04-26 23:51 53.33400 -2.31656 1601 ft 163 kts 234°
2026-04-26 23:51 53.32668 -2.33324 1763 ft 190 kts 239°
2026-04-26 23:51 53.32189 -2.35489 2076 ft 210 kts 266°
2026-04-26 23:51 53.32373 -2.38015 2451 ft 232 kts 293°
2026-04-26 23:52 53.33377 -2.40246 2947 ft 251 kts 324°
2026-04-26 23:52 53.35000 -2.41401 3755 ft 259 kts 343°
2026-04-26 23:52 53.36746 -2.42235 4634 ft 263 kts 342°
2026-04-26 23:52 53.38517 -2.43115 5498 ft 267 kts 342°
2026-04-26 23:53 53.40291 -2.44012 6378 ft 271 kts 342°
2026-04-26 23:53 53.42104 -2.44944 7216 ft 274 kts 342°
2026-04-26 23:53 53.43984 -2.45587 7990 ft 280 kts 359°
2026-04-26 23:53 53.45905 -2.44956 8767 ft 286 kts 24°
2026-04-26 23:54 53.47521 -2.42992 9558 ft 291 kts 50°
2026-04-26 23:54 53.48502 -2.40030 10316 ft 293 kts 75°
2026-04-26 23:54 53.48654 -2.36631 11006 ft 295 kts 99°
2026-04-26 23:54 53.48334 -2.33216 11721 ft 298 kts 94°
2026-04-26 23:55 53.48556 -2.29686 12115 ft 316 kts 75°
2026-04-26 23:55 53.49199 -2.26015 12280 ft 338 kts 75°
2026-04-26 23:55 53.49766 -2.22126 12762 ft 347 kts 79°
2026-04-26 23:55 53.50143 -2.18095 13412 ft 351 kts 83°
2026-04-26 23:56 53.50428 -2.13987 14088 ft 355 kts 83°
2026-04-26 23:56 53.50715 -2.09852 14703 ft 358 kts 83°
2026-04-26 23:56 53.51047 -2.05677 15316 ft 361 kts 82°
2026-04-26 23:56 53.51424 -2.01543 15933 ft 363 kts 81°
2026-04-26 23:57 53.51844 -1.97347 16537 ft 366 kts 80°
2026-04-26 23:57 53.52264 -1.93103 17129 ft 369 kts 83°
2026-04-26 23:57 53.52334 -1.88782 17720 ft 373 kts 94°
2026-04-26 23:57 53.51907 -1.84469 18302 ft 377 kts 104°
2026-04-26 23:58 53.51162 -1.80212 18851 ft 381 kts 106°
2026-04-26 23:58 53.50400 -1.75928 19356 ft 385 kts 106°
2026-04-26 23:58 53.49628 -1.71601 19873 ft 389 kts 107°
2026-04-26 23:58 53.48847 -1.67233 20381 ft 393 kts 107°
2026-04-26 23:59 53.48057 -1.62810 20874 ft 397 kts 107°
2026-04-26 23:59 53.47262 -1.58342 21344 ft 402 kts 107°
2026-04-26 23:59 53.46461 -1.53823 21812 ft 406 kts 107°
2026-04-26 23:59 53.45658 -1.49302 22211 ft 412 kts 108°
2026-04-27 00:00 53.44832 -1.44672 22660 ft 417 kts 108°
2026-04-27 00:00 53.43990 -1.39996 23113 ft 421 kts 108°
2026-04-27 00:00 53.43131 -1.35273 23590 ft 425 kts 108°
2026-04-27 00:00 53.42261 -1.30502 24017 ft 429 kts 108°
2026-04-27 00:01 53.41387 -1.25696 24418 ft 432 kts 108°
2026-04-27 00:01 53.40507 -1.20850 24820 ft 435 kts 109°
2026-04-27 00:01 53.39622 -1.15978 25218 ft 437 kts 109°
2026-04-27 00:01 53.38731 -1.11096 25600 ft 440 kts 109°
2026-04-27 00:02 53.37832 -1.06176 25985 ft 442 kts 109°
2026-04-27 00:02 53.36927 -1.01242 26356 ft 445 kts 109°
2026-04-27 00:02 53.36015 -0.96274 26702 ft 448 kts 109°
2026-04-27 00:02 53.35107 -0.91346 27053 ft 450 kts 110°
2026-04-27 00:03 53.34176 -0.86323 27419 ft 453 kts 110°
2026-04-27 00:03 53.33238 -0.81279 27776 ft 455 kts 110°
2026-04-27 00:03 53.32293 -0.76212 28132 ft 457 kts 110°
2026-04-27 00:03 53.31340 -0.71118 28486 ft 460 kts 110°
2026-04-27 00:04 53.30371 -0.65934 28835 ft 462 kts 110°
2026-04-27 00:04 53.29420 -0.60858 29185 ft 464 kts 110°
2026-04-27 00:04 53.28448 -0.55696 29524 ft 467 kts 111°
2026-04-27 00:04 53.27465 -0.50503 29866 ft 469 kts 111°
2026-04-27 00:05 53.26476 -0.45300 30196 ft 471 kts 111°
2026-04-27 00:05 53.25484 -0.40064 30497 ft 473 kts 111°
2026-04-27 00:05 53.24489 -0.34824 30858 ft 473 kts 111°
2026-04-27 00:05 53.23495 -0.29602 31285 ft 471 kts 111°
2026-04-27 00:06 53.22501 -0.24386 31677 ft 471 kts 111°
2026-04-27 00:06 53.21506 -0.19178 32061 ft 471 kts 111°
2026-04-27 00:06 53.20510 -0.13979 32474 ft 470 kts 111°
2026-04-27 00:06 53.19518 -0.08836 32861 ft 470 kts 111°
2026-04-27 00:07 53.18511 -0.03642 33222 ft 471 kts 111°
2026-04-27 00:07 53.17497 0.01561 33298 ft 471 kts 111°
2026-04-27 00:07 53.15466 0.11939 33306 ft 471 kts 111°
2026-04-27 00:08 53.13437 0.22317 33316 ft 471 kts 111°
2026-04-27 00:08 53.11401 0.32686 33315 ft 471 kts 111°
2026-04-27 00:09 53.09372 0.42969 33323 ft 470 kts 112°
2026-04-27 00:09 53.07316 0.53296 33322 ft 470 kts 111°
2026-04-27 00:10 53.05248 0.63625 33318 ft 471 kts 111°
2026-04-27 00:10 53.03175 0.73966 33318 ft 472 kts 111°
2026-04-27 00:11 53.01074 0.84320 33330 ft 472 kts 112°
2026-04-27 00:11 52.98967 0.94655 33329 ft 472 kts 112°
2026-04-27 00:12 52.97268 1.05196 33345 ft 475 kts 103°
2026-04-27 00:12 52.96037 1.15969 33346 ft 475 kts 103°
2026-04-27 00:13 52.94793 1.26718 33346 ft 475 kts 103°
2026-04-27 00:13 52.93537 1.37463 33344 ft 475 kts 103°
2026-04-27 00:14 52.91052 1.58431 33338 ft 475 kts 103°
2026-04-27 00:15 52.89773 1.69097 33332 ft 475 kts 103°
2026-04-27 00:15 52.88472 1.79836 32948 ft 475 kts 103°
2026-04-27 00:16 52.87815 1.85230 32202 ft 477 kts 103°
2026-04-27 00:16 52.87162 1.90583 31690 ft 473 kts 103°
2026-04-27 00:16 52.86512 1.95903 31117 ft 470 kts 103°
2026-04-27 00:16 52.85862 2.01199 30572 ft 467 kts 103°
2026-04-27 00:17 52.85211 2.06456 29973 ft 464 kts 103°
2026-04-27 00:17 52.84567 2.11602 29449 ft 459 kts 103°
2026-04-27 00:17 52.83920 2.16744 28922 ft 454 kts 103°
2026-04-27 00:17 52.83282 2.21840 28396 ft 450 kts 103°
2026-04-27 00:18 52.82651 2.26891 27898 ft 446 kts 103°
2026-04-27 00:18 52.82026 2.31889 27397 ft 442 kts 103°
2026-04-27 00:18 52.81401 2.36841 26921 ft 438 kts 103°
2026-04-27 00:18 52.80779 2.41741 26449 ft 434 kts 103°
2026-04-27 00:19 52.80161 2.46608 26032 ft 430 kts 103°
2026-04-27 00:19 52.79546 2.51431 25605 ft 426 kts 103°
2026-04-27 00:19 52.78932 2.56200 25184 ft 424 kts 103°
2026-04-27 00:19 52.78321 2.60942 24765 ft 421 kts 103°
2026-04-27 00:20 52.77712 2.65666 24334 ft 419 kts 103°
2026-04-27 00:20 52.77102 2.70370 23893 ft 418 kts 103°
2026-04-27 00:20 52.76491 2.75063 23412 ft 416 kts 103°
2026-04-27 00:20 52.75884 2.79724 22961 ft 413 kts 103°
2026-04-27 00:21 52.75280 2.84346 22514 ft 410 kts 103°
2026-04-27 00:21 52.74678 2.88936 22053 ft 408 kts 103°
2026-04-27 00:21 52.74078 2.93493 21597 ft 405 kts 103°
2026-04-27 00:21 52.73417 2.98002 21128 ft 402 kts 109°
2026-04-27 00:22 52.72329 3.02209 20656 ft 397 kts 120°
2026-04-27 00:22 52.70952 3.06134 20202 ft 394 kts 121°
2026-04-27 00:22 52.69583 3.10027 19744 ft 391 kts 121°
2026-04-27 00:22 52.68242 3.13847 19283 ft 388 kts 121°
2026-04-27 00:23 52.66897 3.17686 18882 ft 384 kts 121°
2026-04-27 00:23 52.65564 3.21487 18385 ft 381 kts 121°
2026-04-27 00:23 52.64242 3.25246 17876 ft 378 kts 121°
2026-04-27 00:23 52.62929 3.28963 17429 ft 373 kts 121°
2026-04-27 00:24 52.61627 3.32635 16985 ft 369 kts 121°
2026-04-27 00:24 52.60338 3.36267 16543 ft 365 kts 121°
2026-04-27 00:24 52.59101 3.39901 16096 ft 363 kts 116°
2026-04-27 00:24 52.58272 3.43795 15656 ft 360 kts 103°
2026-04-27 00:25 52.57833 3.47837 15216 ft 358 kts 100°
2026-04-27 00:25 52.57413 3.51856 14782 ft 356 kts 100°
2026-04-27 00:25 52.56989 3.55852 14344 ft 354 kts 100°
2026-04-27 00:25 52.56563 3.59820 13882 ft 351 kts 100°
2026-04-27 00:26 52.56282 3.62436 13582 ft 349 kts 100°
2026-04-27 00:26 52.55862 3.66345 13157 ft 346 kts 100°
2026-04-27 00:26 52.55445 3.70221 12743 ft 343 kts 100°
2026-04-27 00:26 52.55030 3.74070 12315 ft 340 kts 100°
2026-04-27 00:27 52.54620 3.77883 11894 ft 337 kts 99°
2026-04-27 00:27 52.54210 3.81660 11485 ft 335 kts 99°
2026-04-27 00:27 52.53796 3.85418 11071 ft 333 kts 99°
2026-04-27 00:27 52.53385 3.89146 10665 ft 331 kts 99°
2026-04-27 00:28 52.52978 3.92835 10440 ft 323 kts 99°
2026-04-27 00:28 52.52347 3.96305 10319 ft 312 kts 114°
2026-04-27 00:28 52.51246 3.99302 10135 ft 304 kts 128°
2026-04-27 00:28 52.49901 4.01969 9769 ft 302 kts 130°
2026-04-27 00:29 52.48560 4.04604 9433 ft 299 kts 129°
2026-04-27 00:29 52.47224 4.07228 9047 ft 299 kts 129°
2026-04-27 00:29 52.45893 4.09843 8718 ft 297 kts 129°
2026-04-27 00:29 52.44578 4.12431 8432 ft 293 kts 129°
2026-04-27 00:30 52.43278 4.14991 8081 ft 292 kts 129°
2026-04-27 00:30 52.41997 4.17504 7782 ft 289 kts 129°
2026-04-27 00:30 52.40710 4.20023 7474 ft 287 kts 129°
2026-04-27 00:30 52.39433 4.22519 7138 ft 285 kts 129°
2026-04-27 00:31 52.38162 4.25004 6834 ft 283 kts 129°
2026-04-27 00:31 52.36901 4.27467 6504 ft 281 kts 128°
2026-04-27 00:31 52.35647 4.29910 6158 ft 281 kts 128°
2026-04-27 00:31 52.34393 4.32351 5834 ft 279 kts 129°
2026-04-27 00:32 52.33153 4.34766 5505 ft 277 kts 128°
2026-04-27 00:32 52.31916 4.37175 5163 ft 276 kts 129°
2026-04-27 00:32 52.30686 4.39566 4834 ft 274 kts 128°
2026-04-27 00:32 52.29463 4.41943 4439 ft 274 kts 129°
2026-04-27 00:33 52.28200 4.44393 3676 ft 289 kts 129°
2026-04-27 00:33 52.26887 4.46930 3210 ft 291 kts 129°
2026-04-27 00:33 52.25583 4.49446 2771 ft 286 kts 129°
2026-04-27 00:33 52.24345 4.51834 2607 ft 264 kts 129°
2026-04-27 00:34 52.23233 4.54062 2484 ft 242 kts 122°
2026-04-27 00:34 52.22766 4.56525 2385 ft 219 kts 88°
2026-04-27 00:34 52.23175 4.58842 2112 ft 214 kts 54°
2026-04-27 00:34 52.24108 4.60682 1856 ft 206 kts 58°
2026-04-27 00:35 52.24746 4.62699 1598 ft 195 kts 62°
2026-04-27 00:35 52.25398 4.64554 1378 ft 181 kts 59°
2026-04-27 00:35 52.26032 4.66234 1101 ft 165 kts 60°
2026-04-27 00:35 52.26603 4.67722 899 ft 144 kts 59°
2026-04-27 00:36 52.27112 4.69045 706 ft 135 kts 59°
2026-04-27 00:36 52.27601 4.70319 529 ft 131 kts 58°
2026-04-27 00:36 52.28090 4.71589 351 ft 131 kts 58°
2026-04-27 00:36 52.28575 4.72851 192 ft 132 kts 60°
2026-04-27 00:37 52.29047 4.74091 27 ft 121 kts 58°
2026-04-27 00:37 52.29368 4.74949 16 ft 55 kts 53°
2026-04-27 00:37 52.29520 4.75294 16 ft 23 kts 55°
2026-04-27 00:37 52.29656 4.75325 19 ft 16 kts 330°
2026-04-27 00:38 52.29756 4.75317 16 ft 17 kts 53°
2026-04-27 00:38 52.29806 4.75503 16 ft 20 kts 58°
2026-04-27 00:38 52.29889 4.75714 16 ft 24 kts 57°
2026-04-27 00:38 52.29988 4.75968 14 ft 28 kts 57°
2026-04-27 00:39 52.30085 4.76227 14 ft 18 kts 58°
2026-04-27 00:39 52.30154 4.76408 13 ft 21 kts 58°
2026-04-27 00:39 52.30236 4.76621 14 ft 24 kts 57°
2026-04-27 00:39 52.30349 4.76718 10 ft 16 kts
2026-04-27 00:40 52.30433 4.76817 8 ft 13 kts
2026-04-27 00:40 52.30476 4.76771 7 ft 3 kts 326°
2026-04-27 00:40 52.30478 4.76769 7 ft 0 kts 326°
2026-04-27 00:42 52.29071 4.74153 20 ft 0 kts 58°
2026-04-27 00:43 52.26815 4.68272 -6 ft 0 kts 60°